Year,Month,Day,Hour,Minute,Value (Times are PST for temperature in C)
2018,04,26,00,00,11.80
2018,04,26,00,01,11.80
2018,04,26,00,02,11.80
2018,04,26,00,03,11.70
2018,04,26,00,04,11.70
2018,04,26,00,05,11.70
2018,04,26,00,06,11.70
2018,04,26,00,07,11.60
2018,04,26,00,08,11.60
2018,04,26,00,09,11.60
2018,04,26,00,10,11.60
2018,04,26,00,11,11.50
2018,04,26,00,12,11.50
2018,04,26,00,13,11.50
2018,04,26,00,14,11.40
2018,04,26,00,15,11.40
2018,04,26,00,16,11.40
2018,04,26,00,17,11.40
2018,04,26,00,18,11.30
2018,04,26,00,19,11.30
2018,04,26,00,20,11.30
2018,04,26,00,21,11.30
2018,04,26,00,22,11.30
2018,04,26,00,23,11.30
2018,04,26,00,24,11.30
2018,04,26,00,25,11.30
2018,04,26,00,26,11.20
2018,04,26,00,27,11.20
2018,04,26,00,28,11.10
2018,04,26,00,29,11.10
2018,04,26,00,30,11.10
2018,04,26,00,31,11.10
2018,04,26,00,32,11.00
2018,04,26,00,33,11.00
2018,04,26,00,34,11.00
2018,04,26,00,35,11.00
2018,04,26,00,36,10.90
2018,04,26,00,37,10.90
2018,04,26,00,38,10.90
2018,04,26,00,39,10.90
2018,04,26,00,40,10.90
2018,04,26,00,41,10.80
2018,04,26,00,42,10.80
2018,04,26,00,43,10.80
2018,04,26,00,44,10.80
2018,04,26,00,45,10.80
2018,04,26,00,46,10.80
2018,04,26,00,47,10.70
2018,04,26,00,48,10.70
2018,04,26,00,49,10.70
2018,04,26,00,50,10.70
2018,04,26,00,51,10.70
2018,04,26,00,52,10.70
2018,04,26,00,53,10.70
2018,04,26,00,54,10.60
2018,04,26,00,55,10.60
2018,04,26,00,56,10.60
2018,04,26,00,57,10.60
2018,04,26,00,58,10.60
2018,04,26,00,59,10.60
2018,04,26,01,00,10.60
2018,04,26,01,01,10.50
2018,04,26,01,02,10.50
2018,04,26,01,03,10.50
2018,04,26,01,04,10.50
2018,04,26,01,05,10.50
2018,04,26,01,06,10.50
2018,04,26,01,07,10.40
2018,04,26,01,08,10.40
2018,04,26,01,09,10.40
2018,04,26,01,10,10.40
2018,04,26,01,11,10.40
2018,04,26,01,12,10.40
2018,04,26,01,13,10.40
2018,04,26,01,14,10.40
2018,04,26,01,15,10.40
2018,04,26,01,16,10.40
2018,04,26,01,17,10.40
2018,04,26,01,18,10.40
2018,04,26,01,19,10.30
2018,04,26,01,20,10.30
2018,04,26,01,21,10.30
2018,04,26,01,22,10.30
2018,04,26,01,23,10.30
2018,04,26,01,24,10.30
2018,04,26,01,25,10.30
2018,04,26,01,26,10.30
2018,04,26,01,27,10.20
2018,04,26,01,28,10.20
2018,04,26,01,29,10.20
2018,04,26,01,30,10.20
2018,04,26,01,31,10.20
2018,04,26,01,32,10.20
2018,04,26,01,33,10.20
2018,04,26,01,34,10.20
2018,04,26,01,35,10.20
2018,04,26,01,36,10.20
2018,04,26,01,37,10.20
2018,04,26,01,38,10.20
2018,04,26,01,39,10.20
2018,04,26,01,40,10.20
2018,04,26,01,41,10.10
2018,04,26,01,42,10.10
2018,04,26,01,43,10.10
2018,04,26,01,44,10.10
2018,04,26,01,45,10.10
2018,04,26,01,46,10.10
2018,04,26,01,47,10.10
2018,04,26,01,48,10.10
2018,04,26,01,49,10.10
2018,04,26,01,50,10.10
2018,04,26,01,51,10.20
2018,04,26,01,52,10.20
2018,04,26,01,53,10.20
2018,04,26,01,54,10.10
2018,04,26,01,55,10.20
2018,04,26,01,56,10.20
2018,04,26,01,57,10.20
2018,04,26,01,58,10.20
2018,04,26,01,59,10.20
2018,04,26,02,00,10.20
2018,04,26,02,01,10.20
2018,04,26,02,02,10.20
2018,04,26,02,03,10.20
2018,04,26,02,04,10.20
2018,04,26,02,05,10.20
2018,04,26,02,06,10.30
2018,04,26,02,07,10.30
2018,04,26,02,08,10.30
2018,04,26,02,09,10.30
2018,04,26,02,10,10.30
2018,04,26,02,11,10.30
2018,04,26,02,12,10.40
2018,04,26,02,13,10.40
2018,04,26,02,14,10.40
2018,04,26,02,15,10.40
2018,04,26,02,16,10.50
2018,04,26,02,17,10.50
2018,04,26,02,18,10.50
2018,04,26,02,19,10.50
2018,04,26,02,20,10.50
2018,04,26,02,21,10.50
2018,04,26,02,22,10.50
2018,04,26,02,23,10.50
2018,04,26,02,24,10.50
2018,04,26,02,25,10.50
2018,04,26,02,26,10.50
2018,04,26,02,27,10.50
2018,04,26,02,28,10.50
2018,04,26,02,29,10.50
2018,04,26,02,30,10.40
2018,04,26,02,31,10.40
2018,04,26,02,32,10.40
2018,04,26,02,33,10.40
2018,04,26,02,34,10.40
2018,04,26,02,35,10.40
2018,04,26,02,36,10.40
2018,04,26,02,37,10.40
2018,04,26,02,38,10.40
2018,04,26,02,39,10.40
2018,04,26,02,40,10.40
2018,04,26,02,41,10.40
2018,04,26,02,42,10.40
2018,04,26,02,43,10.40
2018,04,26,02,44,10.40
2018,04,26,02,45,10.40
2018,04,26,02,46,10.40
2018,04,26,02,47,10.40
2018,04,26,02,48,10.30
2018,04,26,02,49,10.30
2018,04,26,02,50,10.30
2018,04,26,02,51,10.30
2018,04,26,02,52,10.30
2018,04,26,02,53,10.30
2018,04,26,02,54,10.30
2018,04,26,02,55,10.30
2018,04,26,02,56,10.30
2018,04,26,02,57,10.30
2018,04,26,02,58,10.30
2018,04,26,02,59,10.40
2018,04,26,03,00,10.40
2018,04,26,03,01,10.50
2018,04,26,03,02,10.50
2018,04,26,03,03,10.60
2018,04,26,03,04,10.60
2018,04,26,03,05,10.60
2018,04,26,03,06,10.60
2018,04,26,03,07,10.60
2018,04,26,03,08,10.70
2018,04,26,03,09,10.70
2018,04,26,03,10,10.70
2018,04,26,03,11,10.70
2018,04,26,03,12,10.70
2018,04,26,03,13,10.70
2018,04,26,03,14,10.60
2018,04,26,03,15,10.60
2018,04,26,03,16,10.60
2018,04,26,03,17,10.60
2018,04,26,03,18,10.60
2018,04,26,03,19,10.60
2018,04,26,03,20,10.60
2018,04,26,03,21,10.50
2018,04,26,03,22,10.50
2018,04,26,03,23,10.50
2018,04,26,03,24,10.50
2018,04,26,03,25,10.50
2018,04,26,03,26,10.50
2018,04,26,03,27,10.50
2018,04,26,03,28,10.40
2018,04,26,03,29,10.40
2018,04,26,03,30,10.40
2018,04,26,03,31,10.40
2018,04,26,03,32,10.40
2018,04,26,03,33,10.40
2018,04,26,03,34,10.30
2018,04,26,03,35,10.30
2018,04,26,03,36,10.30
2018,04,26,03,37,10.30
2018,04,26,03,38,10.30
2018,04,26,03,39,10.30
2018,04,26,03,40,10.30
2018,04,26,03,41,10.30
2018,04,26,03,42,10.30
2018,04,26,03,43,10.30
2018,04,26,03,44,10.30
2018,04,26,03,45,10.30
2018,04,26,03,46,10.30
2018,04,26,03,47,10.30
2018,04,26,03,48,10.30
2018,04,26,03,49,10.30
2018,04,26,03,50,10.30
2018,04,26,03,51,10.40
2018,04,26,03,52,10.40
2018,04,26,03,53,10.40
2018,04,26,03,54,10.50
2018,04,26,03,55,10.50
2018,04,26,03,56,10.50
2018,04,26,03,57,10.60
2018,04,26,03,58,10.60
2018,04,26,03,59,10.70
2018,04,26,04,00,10.70
2018,04,26,04,01,10.70
2018,04,26,04,02,10.70
2018,04,26,04,03,10.70
2018,04,26,04,04,10.80
2018,04,26,04,05,10.80
2018,04,26,04,06,10.80
2018,04,26,04,07,10.80
2018,04,26,04,08,10.80
2018,04,26,04,09,10.80
2018,04,26,04,10,10.80
2018,04,26,04,11,10.80
2018,04,26,04,12,10.80
2018,04,26,04,13,10.80
2018,04,26,04,14,10.80
2018,04,26,04,15,10.80
2018,04,26,04,16,10.80
2018,04,26,04,17,10.80
2018,04,26,04,18,10.90
2018,04,26,04,19,10.90
2018,04,26,04,20,10.90
2018,04,26,04,21,10.90
2018,04,26,04,22,10.90
2018,04,26,04,23,10.90
2018,04,26,04,24,10.90
2018,04,26,04,25,10.90
2018,04,26,04,26,10.90
2018,04,26,04,27,11.00
2018,04,26,04,28,11.00
2018,04,26,04,29,11.00
2018,04,26,04,30,11.10
2018,04,26,04,31,11.10
2018,04,26,04,32,11.10
2018,04,26,04,33,11.20
2018,04,26,04,34,11.20
2018,04,26,04,35,11.20
2018,04,26,04,36,11.30
2018,04,26,04,37,11.30
2018,04,26,04,38,11.30
2018,04,26,04,39,11.30
2018,04,26,04,40,11.30
2018,04,26,04,41,11.30
2018,04,26,04,42,11.30
2018,04,26,04,43,11.30
2018,04,26,04,44,11.30
2018,04,26,04,45,11.30
2018,04,26,04,46,11.30
2018,04,26,04,47,11.30
2018,04,26,04,48,11.30
2018,04,26,04,49,11.30
2018,04,26,04,50,11.30
2018,04,26,04,51,11.30
2018,04,26,04,52,11.30
2018,04,26,04,53,11.30
2018,04,26,04,54,11.30
2018,04,26,04,55,11.40
2018,04,26,04,56,11.30
2018,04,26,04,57,11.30
2018,04,26,04,58,11.30
2018,04,26,04,59,11.30
2018,04,26,05,00,11.30
2018,04,26,05,01,11.30
2018,04,26,05,02,11.30
2018,04,26,05,03,11.30
2018,04,26,05,04,11.40
2018,04,26,05,05,11.40
2018,04,26,05,06,11.40
2018,04,26,05,07,11.40
2018,04,26,05,08,11.40
2018,04,26,05,09,11.40
2018,04,26,05,10,11.40
2018,04,26,05,11,11.40
2018,04,26,05,12,11.40
2018,04,26,05,13,11.40
2018,04,26,05,14,11.40
2018,04,26,05,15,11.40
2018,04,26,05,16,11.40
2018,04,26,05,17,11.40
2018,04,26,05,18,11.40
2018,04,26,05,19,11.40
2018,04,26,05,20,11.40
2018,04,26,05,21,11.40
2018,04,26,05,22,11.40
2018,04,26,05,23,11.40
2018,04,26,05,24,11.40
2018,04,26,05,25,11.50
2018,04,26,05,26,11.50
2018,04,26,05,27,11.50
2018,04,26,05,28,11.50
2018,04,26,05,29,11.50
2018,04,26,05,30,11.50
2018,04,26,05,31,11.50
2018,04,26,05,32,11.60
2018,04,26,05,33,11.60
2018,04,26,05,34,11.60
2018,04,26,05,35,11.60
2018,04,26,05,36,11.70
2018,04,26,05,37,11.70
2018,04,26,05,38,11.70
2018,04,26,05,39,11.80
2018,04,26,05,40,11.80
2018,04,26,05,41,11.80
2018,04,26,05,42,11.90
2018,04,26,05,43,11.90
2018,04,26,05,44,11.90
2018,04,26,05,45,12.00
2018,04,26,05,46,12.00
2018,04,26,05,47,12.00
2018,04,26,05,48,12.00
2018,04,26,05,49,12.00
2018,04,26,05,50,12.00
2018,04,26,05,51,12.10
2018,04,26,05,52,12.10
2018,04,26,05,53,12.10
2018,04,26,05,54,12.10
2018,04,26,05,55,12.10
2018,04,26,05,56,12.10
2018,04,26,05,57,12.10
2018,04,26,05,58,12.10
2018,04,26,05,59,12.10
2018,04,26,06,00,12.10
2018,04,26,06,01,12.10
2018,04,26,06,02,12.10
2018,04,26,06,03,12.10
2018,04,26,06,04,12.10
2018,04,26,06,05,12.10
2018,04,26,06,06,12.10
2018,04,26,06,07,12.10
2018,04,26,06,08,12.20
2018,04,26,06,09,12.20
2018,04,26,06,10,12.20
2018,04,26,06,11,12.20
2018,04,26,06,12,12.20
2018,04,26,06,13,12.20
2018,04,26,06,14,12.30
2018,04,26,06,15,12.30
2018,04,26,06,16,12.30
2018,04,26,06,17,12.30
2018,04,26,06,18,12.30
2018,04,26,06,19,12.30
2018,04,26,06,20,12.30
2018,04,26,06,21,12.30
2018,04,26,06,22,12.30
2018,04,26,06,23,12.30
2018,04,26,06,24,12.30
2018,04,26,06,25,12.30
2018,04,26,06,26,12.30
2018,04,26,06,27,12.30
2018,04,26,06,28,12.30
2018,04,26,06,29,12.30
2018,04,26,06,30,12.30
2018,04,26,06,31,12.30
2018,04,26,06,32,12.30
2018,04,26,06,33,12.30
2018,04,26,06,34,12.30
2018,04,26,06,35,12.30
2018,04,26,06,36,12.30
2018,04,26,06,37,12.30
2018,04,26,06,38,12.30
2018,04,26,06,39,12.30
2018,04,26,06,40,12.30
2018,04,26,06,41,12.30
2018,04,26,06,42,12.30
2018,04,26,06,43,12.30
2018,04,26,06,44,12.30
2018,04,26,06,45,12.30
2018,04,26,06,46,12.30
2018,04,26,06,47,12.40
2018,04,26,06,48,12.40
2018,04,26,06,49,12.40
2018,04,26,06,50,12.40
2018,04,26,06,51,12.50
2018,04,26,06,52,12.50
2018,04,26,06,53,12.60
2018,04,26,06,54,12.60
2018,04,26,06,55,12.70
2018,04,26,06,56,12.70
2018,04,26,06,57,12.80
2018,04,26,06,58,12.90
2018,04,26,06,59,12.90
2018,04,26,07,00,13.00
2018,04,26,07,01,13.10
2018,04,26,07,02,13.10
2018,04,26,07,03,13.20
2018,04,26,07,04,13.30
2018,04,26,07,05,13.30
2018,04,26,07,06,13.40
2018,04,26,07,07,13.40
2018,04,26,07,08,13.50
2018,04,26,07,09,13.60
2018,04,26,07,10,13.60
2018,04,26,07,11,13.70
2018,04,26,07,12,13.80
2018,04,26,07,13,13.80
2018,04,26,07,14,13.90
2018,04,26,07,15,13.90
2018,04,26,07,16,14.00
2018,04,26,07,17,14.10
2018,04,26,07,18,14.10
2018,04,26,07,19,14.20
2018,04,26,07,20,14.20
2018,04,26,07,21,14.30
2018,04,26,07,22,14.30
2018,04,26,07,23,14.40
2018,04,26,07,24,14.50
2018,04,26,07,25,14.50
2018,04,26,07,26,14.60
2018,04,26,07,27,14.60
2018,04,26,07,28,14.70
2018,04,26,07,29,14.70
2018,04,26,07,30,14.80
2018,04,26,07,31,14.80
2018,04,26,07,32,14.80
2018,04,26,07,33,14.90
2018,04,26,07,34,15.00
2018,04,26,07,35,15.00
2018,04,26,07,36,15.10
2018,04,26,07,37,15.20
2018,04,26,07,38,15.20
2018,04,26,07,39,15.30
2018,04,26,07,40,15.30
2018,04,26,07,41,15.40
2018,04,26,07,42,15.40
2018,04,26,07,43,15.50
2018,04,26,07,44,15.50
2018,04,26,07,45,15.60
2018,04,26,07,46,15.60
2018,04,26,07,47,15.70
2018,04,26,07,48,15.70
2018,04,26,07,49,15.70
2018,04,26,07,50,15.80
2018,04,26,07,51,15.80
2018,04,26,07,52,15.80
2018,04,26,07,53,15.80
2018,04,26,07,54,15.90
2018,04,26,07,55,15.90
2018,04,26,07,56,15.90
2018,04,26,07,57,16.00
2018,04,26,07,58,16.00
2018,04,26,07,59,16.10
2018,04,26,08,00,16.10
2018,04,26,08,01,16.10
2018,04,26,08,02,16.10
2018,04,26,08,03,16.10
2018,04,26,08,04,16.20
2018,04,26,08,05,16.20
2018,04,26,08,06,16.20
2018,04,26,08,07,16.30
2018,04,26,08,08,16.30
2018,04,26,08,09,16.30
2018,04,26,08,10,16.40
2018,04,26,08,11,16.50
2018,04,26,08,12,16.50
2018,04,26,08,13,16.60
2018,04,26,08,14,16.70
2018,04,26,08,15,16.70
2018,04,26,08,16,16.80
2018,04,26,08,17,16.80
2018,04,26,08,18,16.90
2018,04,26,08,19,16.90
2018,04,26,08,20,17.00
2018,04,26,08,21,17.00
2018,04,26,08,22,17.10
2018,04,26,08,23,17.10
2018,04,26,08,24,17.10
2018,04,26,08,25,17.10
2018,04,26,08,26,17.10
2018,04,26,08,27,17.20
2018,04,26,08,28,17.20
2018,04,26,08,29,17.30
2018,04,26,08,30,17.30
2018,04,26,08,31,17.30
2018,04,26,08,32,17.30
2018,04,26,08,33,17.40
2018,04,26,08,34,17.40
2018,04,26,08,35,17.40
2018,04,26,08,36,17.50
2018,04,26,08,37,17.50
2018,04,26,08,38,17.50
2018,04,26,08,39,17.60
2018,04,26,08,40,17.60
2018,04,26,08,41,17.60
2018,04,26,08,42,17.60
2018,04,26,08,43,17.70
2018,04,26,08,44,17.70
2018,04,26,08,45,17.70
2018,04,26,08,46,17.80
2018,04,26,08,47,17.80
2018,04,26,08,48,17.80
2018,04,26,08,49,17.80
2018,04,26,08,50,17.90
2018,04,26,08,51,17.80
2018,04,26,08,52,17.80
2018,04,26,08,53,17.80
2018,04,26,08,54,17.80
2018,04,26,08,55,17.70
2018,04,26,08,56,17.70
2018,04,26,08,57,17.70
2018,04,26,08,58,17.70
2018,04,26,08,59,17.70
2018,04,26,09,00,17.70
2018,04,26,09,01,17.70
2018,04,26,09,02,17.70
2018,04,26,09,03,17.70
2018,04,26,09,04,17.70
2018,04,26,09,05,17.70
2018,04,26,09,06,17.80
2018,04,26,09,07,17.80
2018,04,26,09,08,17.80
2018,04,26,09,09,17.80
2018,04,26,09,10,17.80
2018,04,26,09,11,17.90
2018,04,26,09,12,17.90
2018,04,26,09,13,17.90
2018,04,26,09,14,17.90
2018,04,26,09,15,18.00
2018,04,26,09,16,18.00
2018,04,26,09,17,18.00
2018,04,26,09,18,18.00
2018,04,26,09,19,18.10
2018,04,26,09,20,18.10
2018,04,26,09,21,18.10
2018,04,26,09,22,18.20
2018,04,26,09,23,18.20
2018,04,26,09,24,18.30
2018,04,26,09,25,18.30
2018,04,26,09,26,18.30
2018,04,26,09,27,18.40
2018,04,26,09,28,18.40
2018,04,26,09,29,18.40
2018,04,26,09,30,18.50
2018,04,26,09,31,18.50
2018,04,26,09,32,18.60
2018,04,26,09,33,18.60
2018,04,26,09,34,18.70
2018,04,26,09,35,18.70
2018,04,26,09,36,18.70
2018,04,26,09,37,18.80
2018,04,26,09,38,18.80
2018,04,26,09,39,18.80
2018,04,26,09,40,18.80
2018,04,26,09,41,18.80
2018,04,26,09,42,18.80
2018,04,26,09,43,18.70
2018,04,26,09,44,18.70
2018,04,26,09,45,18.70
2018,04,26,09,46,18.70
2018,04,26,09,47,18.70
2018,04,26,09,48,18.70
2018,04,26,09,49,18.80
2018,04,26,09,50,18.80
2018,04,26,09,51,18.80
2018,04,26,09,52,18.80
2018,04,26,09,53,18.80
2018,04,26,09,54,18.80
2018,04,26,09,55,18.80
2018,04,26,09,56,18.80
2018,04,26,09,57,18.80
2018,04,26,09,58,18.90
2018,04,26,09,59,18.90
2018,04,26,10,00,18.90
2018,04,26,10,01,18.90
2018,04,26,10,02,18.90
2018,04,26,10,03,18.90
2018,04,26,10,04,19.00
2018,04,26,10,05,19.00
2018,04,26,10,06,19.10
2018,04,26,10,07,19.10
2018,04,26,10,08,19.10
2018,04,26,10,09,19.10
2018,04,26,10,10,19.10
2018,04,26,10,11,19.10
2018,04,26,10,12,19.10
2018,04,26,10,13,19.10
2018,04,26,10,14,19.10
2018,04,26,10,15,19.10
2018,04,26,10,16,19.10
2018,04,26,10,17,19.10
2018,04,26,10,18,19.20
2018,04,26,10,19,19.20
2018,04,26,10,20,19.30
2018,04,26,10,21,19.30
2018,04,26,10,22,19.40
2018,04,26,10,23,19.40
2018,04,26,10,24,19.40
2018,04,26,10,25,19.40
2018,04,26,10,26,19.40
2018,04,26,10,27,19.50
2018,04,26,10,28,19.50
2018,04,26,10,29,19.50
2018,04,26,10,30,19.60
2018,04,26,10,31,19.60
2018,04,26,10,32,19.60
2018,04,26,10,33,19.60
2018,04,26,10,34,19.60
2018,04,26,10,35,19.60
2018,04,26,10,36,19.60
2018,04,26,10,37,19.60
2018,04,26,10,38,19.60
2018,04,26,10,39,19.60
2018,04,26,10,40,19.60
2018,04,26,10,41,19.70
2018,04,26,10,42,19.70
2018,04,26,10,43,19.70
2018,04,26,10,44,19.80
2018,04,26,10,45,19.80
2018,04,26,10,46,19.90
2018,04,26,10,47,20.00
2018,04,26,10,48,20.00
2018,04,26,10,49,20.10
2018,04,26,10,50,20.20
2018,04,26,10,51,20.20
2018,04,26,10,52,20.20
2018,04,26,10,53,20.30
2018,04,26,10,54,20.30
2018,04,26,10,55,20.30
2018,04,26,10,56,20.30
2018,04,26,10,57,20.30
2018,04,26,10,58,20.30
2018,04,26,10,59,20.30
2018,04,26,11,00,20.30
2018,04,26,11,01,20.30
2018,04,26,11,02,20.30
2018,04,26,11,03,20.30
2018,04,26,11,04,20.40
2018,04,26,11,05,20.30
2018,04,26,11,06,20.30
2018,04,26,11,07,20.30
2018,04,26,11,08,20.30
2018,04,26,11,09,20.30
2018,04,26,11,10,20.30
2018,04,26,11,11,20.30
2018,04,26,11,12,20.30
2018,04,26,11,13,20.30
2018,04,26,11,14,20.30
2018,04,26,11,15,20.30
2018,04,26,11,16,20.30
2018,04,26,11,17,20.40
2018,04,26,11,18,20.40
2018,04,26,11,19,20.40
2018,04,26,11,20,20.40
2018,04,26,11,21,20.50
2018,04,26,11,22,20.50
2018,04,26,11,23,20.50
2018,04,26,11,24,20.60
2018,04,26,11,25,20.60
2018,04,26,11,26,20.60
2018,04,26,11,27,20.70
2018,04,26,11,28,20.70
2018,04,26,11,29,20.80
2018,04,26,11,30,20.80
2018,04,26,11,31,20.90
2018,04,26,11,32,20.90
2018,04,26,11,33,20.90
2018,04,26,11,34,21.00
2018,04,26,11,35,21.00
2018,04,26,11,36,21.00
2018,04,26,11,37,21.10
2018,04,26,11,38,21.10
2018,04,26,11,39,21.10
2018,04,26,11,40,21.20
2018,04,26,11,41,21.20
2018,04,26,11,42,21.20
2018,04,26,11,43,21.20
2018,04,26,11,44,21.20
2018,04,26,11,45,21.20
2018,04,26,11,46,21.30
2018,04,26,11,47,21.30
2018,04,26,11,48,21.30
2018,04,26,11,49,21.30
2018,04,26,11,50,21.30
2018,04,26,11,51,21.30
2018,04,26,11,52,21.30
2018,04,26,11,53,21.30
2018,04,26,11,54,21.30
2018,04,26,11,55,21.30
2018,04,26,11,56,21.40
2018,04,26,11,57,21.40
2018,04,26,11,58,21.50
2018,04,26,11,59,21.50
2018,04,26,12,00,21.60
2018,04,26,12,01,21.60
2018,04,26,12,02,21.60
2018,04,26,12,03,21.60
2018,04,26,12,04,21.70
2018,04,26,12,05,21.70
2018,04,26,12,06,21.80
2018,04,26,12,07,21.80
2018,04,26,12,08,21.80
2018,04,26,12,09,21.80
2018,04,26,12,10,21.90
2018,04,26,12,11,21.90
2018,04,26,12,12,22.00
2018,04,26,12,13,22.00
2018,04,26,12,14,22.10
2018,04,26,12,15,22.10
2018,04,26,12,16,22.20
2018,04,26,12,17,22.20
2018,04,26,12,18,22.30
2018,04,26,12,19,22.30
2018,04,26,12,20,22.30
2018,04,26,12,21,22.30
2018,04,26,12,22,22.40
2018,04,26,12,23,22.40
2018,04,26,12,24,22.40
2018,04,26,12,25,22.40
2018,04,26,12,26,22.40
2018,04,26,12,27,22.50
2018,04,26,12,28,22.50
2018,04,26,12,29,22.50
2018,04,26,12,30,22.50
2018,04,26,12,31,22.50
2018,04,26,12,32,22.60
2018,04,26,12,33,22.60
2018,04,26,12,34,22.60
2018,04,26,12,35,22.60
2018,04,26,12,36,22.60
2018,04,26,12,37,22.60
2018,04,26,12,38,22.60
2018,04,26,12,39,22.70
2018,04,26,12,40,22.70
2018,04,26,12,41,22.80
2018,04,26,12,42,22.80
2018,04,26,12,43,22.80
2018,04,26,12,44,22.70
2018,04,26,12,45,22.70
2018,04,26,12,46,22.70
2018,04,26,12,47,22.70
2018,04,26,12,48,22.70
2018,04,26,12,49,22.60
2018,04,26,12,50,22.60
2018,04,26,12,51,22.60
2018,04,26,12,52,22.60
2018,04,26,12,53,22.60
2018,04,26,12,54,22.60
2018,04,26,12,55,22.60
2018,04,26,12,56,22.50
2018,04,26,12,57,22.50
2018,04,26,12,58,22.60
2018,04,26,12,59,22.60
2018,04,26,13,00,22.60
2018,04,26,13,01,22.60
2018,04,26,13,02,22.60
2018,04,26,13,03,22.60
2018,04,26,13,04,22.60
2018,04,26,13,05,22.70
2018,04,26,13,06,22.70
2018,04,26,13,07,22.80
2018,04,26,13,08,22.80
2018,04,26,13,09,22.80
2018,04,26,13,10,22.90
2018,04,26,13,11,22.90
2018,04,26,13,12,22.90
2018,04,26,13,13,22.80
2018,04,26,13,14,22.80
2018,04,26,13,15,22.80
2018,04,26,13,16,22.80
2018,04,26,13,17,22.80
2018,04,26,13,18,22.80
2018,04,26,13,19,22.80
2018,04,26,13,20,22.90
2018,04,26,13,21,22.90
2018,04,26,13,22,22.90
2018,04,26,13,23,22.90
2018,04,26,13,24,22.90
2018,04,26,13,25,23.00
2018,04,26,13,26,23.00
2018,04,26,13,27,23.10
2018,04,26,13,28,23.10
2018,04,26,13,29,23.10
2018,04,26,13,30,23.20
2018,04,26,13,31,23.20
2018,04,26,13,32,23.20
2018,04,26,13,33,23.30
2018,04,26,13,34,23.30
2018,04,26,13,35,23.40
2018,04,26,13,36,23.40
2018,04,26,13,37,23.40
2018,04,26,13,38,23.40
2018,04,26,13,39,23.50
2018,04,26,13,40,23.50
2018,04,26,13,41,23.60
2018,04,26,13,42,23.60
2018,04,26,13,43,23.60
2018,04,26,13,44,23.60
2018,04,26,13,45,23.60
2018,04,26,13,46,23.70
2018,04,26,13,47,23.70
2018,04,26,13,48,23.70
2018,04,26,13,49,23.70
2018,04,26,13,50,23.80
2018,04,26,13,51,23.80
2018,04,26,13,52,23.80
2018,04,26,13,53,23.70
2018,04,26,13,54,23.70
2018,04,26,13,55,23.70
2018,04,26,13,56,23.70
2018,04,26,13,57,23.80
2018,04,26,13,58,23.80
2018,04,26,13,59,23.80
2018,04,26,14,00,23.90
2018,04,26,14,01,24.00
2018,04,26,14,02,24.00
2018,04,26,14,03,24.00
2018,04,26,14,04,23.90
2018,04,26,14,05,23.90
2018,04,26,14,06,23.90
2018,04,26,14,07,23.90
2018,04,26,14,08,23.90
2018,04,26,14,09,23.90
2018,04,26,14,10,24.00
2018,04,26,14,11,24.10
2018,04,26,14,12,24.10
2018,04,26,14,13,24.20
2018,04,26,14,14,24.30
2018,04,26,14,15,24.30
2018,04,26,14,16,24.40
2018,04,26,14,17,24.40
2018,04,26,14,18,24.50
2018,04,26,14,19,24.50
2018,04,26,14,20,24.60
2018,04,26,14,21,24.60
2018,04,26,14,22,24.60
2018,04,26,14,23,24.60
2018,04,26,14,24,24.60
2018,04,26,14,25,24.60
2018,04,26,14,26,24.60
2018,04,26,14,27,24.60
2018,04,26,14,28,24.60
2018,04,26,14,29,24.60
2018,04,26,14,30,24.60
2018,04,26,14,31,24.60
2018,04,26,14,32,24.70
2018,04,26,14,33,24.70
2018,04,26,14,34,24.70
2018,04,26,14,35,24.70
2018,04,26,14,36,24.80
2018,04,26,14,37,24.80
2018,04,26,14,38,24.80
2018,04,26,14,39,24.80
2018,04,26,14,40,24.80
2018,04,26,14,41,24.90
2018,04,26,14,42,24.90
2018,04,26,14,43,25.00
2018,04,26,14,44,25.00
2018,04,26,14,45,25.10
2018,04,26,14,46,25.10
2018,04,26,14,47,25.20
2018,04,26,14,48,25.20
2018,04,26,14,49,25.20
2018,04,26,14,50,25.30
2018,04,26,14,51,25.30
2018,04,26,14,52,25.30
2018,04,26,14,53,25.30
2018,04,26,14,54,25.40
2018,04,26,14,55,25.40
2018,04,26,14,56,25.40
2018,04,26,14,57,25.40
2018,04,26,14,58,25.40
2018,04,26,14,59,25.40
2018,04,26,15,00,25.40
2018,04,26,15,01,25.40
2018,04,26,15,02,25.40
2018,04,26,15,03,25.40
2018,04,26,15,04,25.40
2018,04,26,15,05,25.40
2018,04,26,15,06,25.40
2018,04,26,15,07,25.40
2018,04,26,15,08,25.50
2018,04,26,15,09,25.50
2018,04,26,15,10,25.50
2018,04,26,15,11,25.40
2018,04,26,15,12,25.40
2018,04,26,15,13,25.40
2018,04,26,15,14,25.40
2018,04,26,15,15,25.40
2018,04,26,15,16,25.40
2018,04,26,15,17,25.40
2018,04,26,15,18,25.40
2018,04,26,15,19,25.40
2018,04,26,15,20,25.40
2018,04,26,15,21,25.40
2018,04,26,15,22,25.40
2018,04,26,15,23,25.40
2018,04,26,15,24,25.40
2018,04,26,15,25,25.40
2018,04,26,15,26,25.50
2018,04,26,15,27,25.50
2018,04,26,15,28,25.50
2018,04,26,15,29,25.60
2018,04,26,15,30,25.60
2018,04,26,15,31,25.60
2018,04,26,15,32,25.60
2018,04,26,15,33,25.60
2018,04,26,15,34,25.60
2018,04,26,15,35,25.60
2018,04,26,15,36,25.60
2018,04,26,15,37,25.60
2018,04,26,15,38,25.60
2018,04,26,15,39,25.60
2018,04,26,15,40,25.60
2018,04,26,15,41,25.60
2018,04,26,15,42,25.60
2018,04,26,15,43,25.70
2018,04,26,15,44,25.70
2018,04,26,15,45,25.70
2018,04,26,15,46,25.80
2018,04,26,15,47,25.80
2018,04,26,15,48,25.90
2018,04,26,15,49,26.00
2018,04,26,15,50,26.00
2018,04,26,15,51,26.10
2018,04,26,15,52,26.20
2018,04,26,15,53,26.20
2018,04,26,15,54,26.20
2018,04,26,15,55,26.20
2018,04,26,15,56,26.20
2018,04,26,15,57,26.20
2018,04,26,15,58,26.20
2018,04,26,15,59,26.20
2018,04,26,16,00,26.30
2018,04,26,16,01,26.30
2018,04,26,16,02,26.30
2018,04,26,16,03,26.30
2018,04,26,16,04,26.30
2018,04,26,16,05,26.30
2018,04,26,16,06,26.30
2018,04,26,16,07,26.30
2018,04,26,16,08,26.30
2018,04,26,16,09,26.30
2018,04,26,16,10,26.30
2018,04,26,16,11,26.40
2018,04,26,16,12,26.40
2018,04,26,16,13,26.40
2018,04,26,16,14,26.40
2018,04,26,16,15,26.40
2018,04,26,16,16,26.40
2018,04,26,16,17,26.40
2018,04,26,16,18,26.40
2018,04,26,16,19,26.40
2018,04,26,16,20,26.40
2018,04,26,16,21,26.40
2018,04,26,16,22,26.40
2018,04,26,16,23,26.20
2018,04,26,16,24,26.00
2018,04,26,16,25,25.80
2018,04,26,16,26,25.50
2018,04,26,16,27,25.30
2018,04,26,16,28,25.00
2018,04,26,16,29,24.60
2018,04,26,16,30,24.20
2018,04,26,16,31,24.00
2018,04,26,16,32,23.70
2018,04,26,16,33,23.50
2018,04,26,16,34,23.30
2018,04,26,16,35,23.10
2018,04,26,16,36,22.90
2018,04,26,16,37,22.70
2018,04,26,16,38,22.60
2018,04,26,16,39,22.40
2018,04,26,16,40,22.30
2018,04,26,16,41,22.10
2018,04,26,16,42,21.90
2018,04,26,16,43,21.80
2018,04,26,16,44,21.70
2018,04,26,16,45,21.60
2018,04,26,16,46,21.50
2018,04,26,16,47,21.30
2018,04,26,16,48,21.20
2018,04,26,16,49,21.10
2018,04,26,16,50,21.10
2018,04,26,16,51,21.10
2018,04,26,16,52,21.10
2018,04,26,16,53,21.00
2018,04,26,16,54,21.00
2018,04,26,16,55,21.00
2018,04,26,16,56,21.00
2018,04,26,16,57,20.90
2018,04,26,16,58,20.90
2018,04,26,16,59,21.00
2018,04,26,17,00,21.00
2018,04,26,17,01,21.10
2018,04,26,17,02,21.10
2018,04,26,17,03,21.20
2018,04,26,17,04,21.30
2018,04,26,17,05,21.40
2018,04,26,17,06,21.50
2018,04,26,17,07,21.70
2018,04,26,17,08,21.90
2018,04,26,17,09,22.10
2018,04,26,17,10,22.30
2018,04,26,17,11,22.60
2018,04,26,17,12,22.80
2018,04,26,17,13,23.10
2018,04,26,17,14,23.40
2018,04,26,17,15,23.60
2018,04,26,17,16,23.80
2018,04,26,17,17,23.80
2018,04,26,17,18,23.80
2018,04,26,17,19,23.80